• In France
  • List of Countries
  • For 7 days
  • Water Temperature
  • Satellite Maps
  • Weather Map
  • Weather Widgets
  • user-avatar
    Login

    Hourly Weather Carmarthen

    Today, 18 January, Thursday

    Time Temperature Precipitation Wind Pressure Humidity
    00:00 0°C° 0 mm 8 mps 737 mmHg 97%
    01:00 0°C° 0.4 mm 8 mps 738 mmHg 96%
    02:00 0°C° 0.4 mm 8 mps 739 mmHg 95%
    03:00 0°C° 0.4 mm 9 mps 740 mmHg 94%
    04:00 0°C° 0.2 mm 9 mps 741 mmHg 93%
    05:00 0°C° 0.2 mm 9 mps 742 mmHg 91%
    06:00 +1°C° 0 mm 6 mps 744 mmHg 92%
    07:00 +1°C° 0.2 mm 6 mps 744 mmHg 92%
    08:00 0°C° 0.2 mm 7 mps 744 mmHg 93%
    09:00 0°C° 0.2 mm 7 mps 744 mmHg 93%
    10:00 0°C° 0.2 mm 7 mps 745 mmHg 91%
    11:00 +2°C° 0.2 mm 7 mps 745 mmHg 89%
    12:00 +1°C° 0.2 mm 8 mps 746 mmHg 87%
    13:00 +1°C° 0.1 mm 8 mps 746 mmHg 86%
    14:00 +1°C° 0.1 mm 8 mps 746 mmHg 85%
    15:00 +1°C° 0.1 mm 8 mps 746 mmHg 84%
    16:00 0°C° 0.1 mm 8 mps 747 mmHg 84%
    17:00 0°C° 0.1 mm 8 mps 747 mmHg 84%
    18:00 -1°C° 0.1 mm 8 mps 748 mmHg 84%
    19:00 -1°C° 0 mm 8 mps 748 mmHg 84%
    20:00 -1°C° 0 mm 8 mps 749 mmHg 85%
    21:00 -1°C° 0 mm 8 mps 749 mmHg 85%
    22:00 -1°C° 0 mm 8 mps 749 mmHg 85%
    23:00 -1°C° 0 mm 8 mps 749 mmHg 85%

    Tomorrow, 19 January, Friday

    Time Temperature Precipitation Wind Pressure Humidity
    00:00 -2°C° 0 mm 8 mps 749 mmHg 85%
    01:00 -2°C° 0.1 mm 8 mps 749 mmHg 85%
    02:00 -2°C° 0.1 mm 8 mps 749 mmHg 84%
    03:00 -2°C° 0.1 mm 8 mps 749 mmHg 84%
    04:00 -2°C° 0.1 mm 8 mps 749 mmHg 84%
    05:00 -2°C° 0.1 mm 8 mps 749 mmHg 84%
    06:00 -2°C° 0.1 mm 8 mps 749 mmHg 84%
    07:00 -2°C° 0.1 mm 8 mps 749 mmHg 85%
    08:00 -2°C° 0.1 mm 8 mps 749 mmHg 85%
    09:00 -1°C° 0.1 mm 8 mps 749 mmHg 86%
    10:00 -1°C° 0.2 mm 8 mps 749 mmHg 83%
    11:00 -1°C° 0.2 mm 8 mps 749 mmHg 80%
    12:00 0°C° 0.2 mm 8 mps 749 mmHg 77%
    13:00 0°C° 0.2 mm 9 mps 749 mmHg 77%
    14:00 0°C° 0.2 mm 10 mps 749 mmHg 77%
    15:00 -1°C° 0.2 mm 11 mps 749 mmHg 78%
    16:00 0°C° 0.1 mm 10 mps 749 mmHg 78%
    17:00 0°C° 0.1 mm 10 mps 749 mmHg 79%
    18:00 -1°C° 0.1 mm 9 mps 749 mmHg 79%
    19:00 -1°C° 0.1 mm 9 mps 750 mmHg 81%
    20:00 -1°C° 0.1 mm 8 mps 750 mmHg 82%
    21:00 -1°C° 0.1 mm 8 mps 750 mmHg 84%
    22:00 -1°C° 0 mm 8 mps 750 mmHg 84%
    23:00 -1°C° 0 mm 8 mps 750 mmHg 85%

    Day after tomorrow, 20 January, Saturday

    Time Temperature Precipitation Wind Pressure Humidity
    00:00 -1°C° 0 mm 8 mps 750 mmHg 85%
    01:00 -1°C° 0 mm 7 mps 750 mmHg 86%
    02:00 -2°C° 0 mm 7 mps 749 mmHg 86%
    03:00 -2°C° 0 mm 6 mps 749 mmHg 87%
    04:00 -2°C° 0 mm 6 mps 750 mmHg 87%
    05:00 -2°C° 0 mm 6 mps 750 mmHg 87%
    06:00 -1°C° 0 mm 5 mps 750 mmHg 86%
    07:00 -1°C° 0 mm 5 mps 751 mmHg 87%
    08:00 -1°C° 0 mm 5 mps 751 mmHg 87%
    09:00 -1°C° 0 mm 5 mps 752 mmHg 87%
    10:00 -1°C° 0 mm 4 mps 752 mmHg 86%
    11:00 0°C° 0 mm 4 mps 753 mmHg 85%
    12:00 +1°C° 0 mm 4 mps 753 mmHg 84%
    13:00 +1°C° 0 mm 4 mps 753 mmHg 85%
    14:00 +2°C° 0 mm 3 mps 754 mmHg 86%
    15:00 +2°C° 0 mm 3 mps 754 mmHg 86%
    16:00 +3°C° 0 mm 2 mps 754 mmHg 87%
    17:00 +3°C° 0 mm 2 mps 754 mmHg 88%
    18:00 +2°C° 0 mm 2 mps 755 mmHg 88%
    19:00 +2°C° 0.3 mm 3 mps 755 mmHg 88%
    20:00 +1°C° 0.3 mm 4 mps 754 mmHg 88%
    21:00 +1°C° 0.3 mm 5 mps 754 mmHg 88%
    22:00 +1°C° 1 mm 6 mps 754 mmHg 89%
    23:00 0°C° 1 mm 8 mps 753 mmHg 91%

    21 January, Sunday

    Time Temperature Precipitation Wind Pressure Humidity
    00:00 +1°C° 1 mm 9 mps 752 mmHg 92%
    01:00 +1°C° 1.8 mm 9 mps 751 mmHg 93%
    02:00 +2°C° 1.8 mm 10 mps 750 mmHg 95%
    03:00 +2°C° 1.8 mm 10 mps 749 mmHg 96%
    04:00 +4°C° 1.3 mm 8 mps 748 mmHg 96%
    05:00 +5°C° 1.3 mm 7 mps 748 mmHg 97%
    06:00 +7°C° 1.3 mm 6 mps 747 mmHg 97%
    07:00 +8°C° 0.6 mm 6 mps 747 mmHg 97%
    08:00 +8°C° 0.6 mm 6 mps 747 mmHg 97%
    09:00 +9°C° 0.6 mm 6 mps 747 mmHg 96%
    10:00 +9°C° 0.1 mm 6 mps 747 mmHg 96%
    11:00 +10°C° 0.1 mm 6 mps 748 mmHg 95%
    12:00 +10°C° 0.1 mm 7 mps 748 mmHg 95%
    13:00 +10°C° 0.1 mm 7 mps 748 mmHg 94%
    14:00 +9°C° 0.1 mm 7 mps 749 mmHg 92%
    15:00 +9°C° 0.1 mm 7 mps 750 mmHg 91%
    16:00 +8°C° 0.1 mm 6 mps 750 mmHg 90%
    17:00 +7°C° 0.1 mm 6 mps 751 mmHg 88%
    18:00 +5°C° 0.1 mm 6 mps 752 mmHg 86%
    19:00 +4°C° 0 mm 6 mps 753 mmHg 86%
    20:00 +5°C° 0 mm 5 mps 754 mmHg 85%
    21:00 +5°C° 0 mm 5 mps 755 mmHg 84%
    22:00 +3°C° 0 mm 5 mps 755 mmHg 85%
    23:00 +3°C° 0 mm 5 mps 755 mmHg 86%

    22 January, Monday

    Time Temperature Precipitation Wind Pressure Humidity
    00:00 +3°C° 0 mm 5 mps 756 mmHg 87%
    01:00 +3°C° 0 mm 4 mps 756 mmHg 88%
    02:00 +3°C° 0 mm 4 mps 756 mmHg 89%
    03:00 +3°C° 0 mm 3 mps 756 mmHg 90%
    04:00 +3°C° 0 mm 3 mps 756 mmHg 90%
    05:00 +3°C° 0 mm 4 mps 755 mmHg 90%
    06:00 +3°C° 0 mm 4 mps 755 mmHg 90%
    07:00 +2°C° 0.2 mm 5 mps 754 mmHg 90%
    08:00 +3°C° 0.2 mm 7 mps 753 mmHg 89%
    09:00 +2°C° 0.2 mm 8 mps 752 mmHg 89%
    10:00 +3°C° 1.5 mm 9 mps 750 mmHg 90%
    11:00 +5°C° 1.5 mm 10 mps 748 mmHg 92%
    12:00 +5°C° 1.5 mm 12 mps 746 mmHg 94%
    13:00 +7°C° 0.7 mm 12 mps 745 mmHg 92%
    14:00 +9°C° 0.7 mm 12 mps 744 mmHg 90%
    15:00 +10°C° 0.7 mm 12 mps 742 mmHg 88%
    16:00 +9°C° 0 mm 12 mps 743 mmHg 86%
    17:00 +8°C° 0 mm 13 mps 744 mmHg 85%
    18:00 +7°C° 0 mm 13 mps 745 mmHg 84%
    19:00 +7°C° 0.1 mm 11 mps 746 mmHg 86%
    20:00 +6°C° 0.1 mm 10 mps 746 mmHg 87%
    21:00 +6°C° 0.1 mm 9 mps 747 mmHg 89%
    22:00 +6°C° 0.3 mm 9 mps 747 mmHg 88%
    23:00 +6°C° 0.3 mm 9 mps 747 mmHg 88%

    23 January, Tuesday

    Time Temperature Precipitation Wind Pressure Humidity
    00:00 +6°C° 0.3 mm 9 mps 747 mmHg 87%
    01:00 +5°C° 0 mm 9 mps 748 mmHg 87%
    02:00 +5°C° 0 mm 9 mps 749 mmHg 87%
    03:00 +3°C° 0 mm 9 mps 750 mmHg 87%
    04:00 +3°C° 0 mm 9 mps 751 mmHg 86%
    05:00 +4°C° 0 mm 8 mps 752 mmHg 86%
    06:00 +4°C° 0 mm 8 mps 753 mmHg 86%
    07:00 +4°C° 0 mm 8 mps 754 mmHg 86%
    08:00 +4°C° 0 mm 7 mps 754 mmHg 86%
    09:00 +3°C° 0 mm 7 mps 755 mmHg 86%
    10:00 +4°C° 0 mm 7 mps 755 mmHg 85%
    11:00 +5°C° 0 mm 8 mps 755 mmHg 83%
    12:00 +6°C° 0 mm 8 mps 755 mmHg 82%
    13:00 +6°C° 0 mm 9 mps 754 mmHg 82%
    14:00 +7°C° 0 mm 9 mps 753 mmHg 83%
    15:00 +7°C° 0 mm 10 mps 753 mmHg 83%
    16:00 +8°C° 0.1 mm 11 mps 752 mmHg 84%
    17:00 +8°C° 0.1 mm 12 mps 750 mmHg 86%
    18:00 +9°C° 0.1 mm 13 mps 749 mmHg 87%
    19:00 +9°C° 0 mm 13 mps 749 mmHg 86%
    20:00 +8°C° 0 mm 13 mps 748 mmHg 86%
    21:00 +8°C° 0 mm 13 mps 747 mmHg 85%
    22:00 +9°C° 0.1 mm 12 mps 747 mmHg 85%
    23:00 +9°C° 0.1 mm 12 mps 746 mmHg 86%
    Show more